Location: Laguna de la Cañada del Gallo
(40.3974°N, 5.2096°W)
Time: 14:08:17
(UTC+00:00)

SPOT 3 Rocket - Visible Passes

Search period start: 18 July 2024 00:00
Search period end: 28 July 2024 00:00
Orbit: 777 x 791 km, 98.6° (Epoch: 17 July)

Date Brightness Start Highest point End Pass type
(mag) Time Alt. Az. Time Alt. Az. Time Alt. Az.
18 Jul 5.0 20:44:39 11° ESE 20:48:16 23° ENE 20:52:15 10° NNE visible
18 Jul 4.3 22:25:15 30° SSW 22:27:19 45° W 22:32:19 10° NNW visible
19 Jul 5.6 20:15:34 10° E 20:17:32 12° ENE 20:19:30 10° NE visible
19 Jul 3.5 21:53:45 34° SSE 21:56:06 89° WSW 22:01:22 10° NNW visible
20 Jul 4.0 21:22:16 24° SE 21:25:03 47° ENE 21:30:03 10° N visible
20 Jul 5.4 23:02:53 17° WSW 23:04:38 20° W 23:08:29 10° NW visible
21 Jul 4.8 20:50:47 14° ESE 20:54:08 25° ENE 20:58:21 10° NNE visible
21 Jul 4.5 22:31:23 29° SW 22:33:16 40° W 22:38:10 10° NNW visible
22 Jul 5.5 20:20:50 10° E 20:23:22 14° ENE 20:25:54 10° NNE visible
22 Jul 3.6 21:59:54 37° S 22:02:02 79° WSW 22:07:16 10° NNW visible
23 Jul 3.8 21:28:25 28° SE 21:30:56 54° ENE 21:36:02 10° N visible
23 Jul 5.6 23:09:02 16° WSW 23:10:37 18° W 23:14:07 10° NW visible
24 Jul 4.7 20:56:56 16° ESE 20:59:59 28° ENE 21:04:24 10° N visible
24 Jul 4.7 22:37:33 28° SW 22:39:12 35° W 22:43:58 10° NNW visible
25 Jul 5.4 20:26:14 10° E 20:29:11 16° ENE 20:32:10 10° NNE visible
25 Jul 3.7 22:06:03 39° S 22:07:56 70° WSW 22:13:10 10° NNW visible
26 Jul 3.7 21:34:34 33° SE 21:36:50 61° ENE 21:41:58 10° N visible
26 Jul 5.7 23:15:11 14° WSW 23:16:35 16° W 23:19:42 10° NW visible
27 Jul 4.5 21:03:05 20° ESE 21:05:51 32° ENE 21:10:25 10° N visible
27 Jul 4.9 22:43:42 27° SW 22:45:09 31° W 22:49:45 10° NW visible
